Terminal Aerodrome Forecast
Issued by NWS Salt Lake City, UT

Current Version | Previous Version | Text Only | Print | Product List | Glossary On
Versions: 1 2 3 4 5 6 7 8 9 10 11 12 13 14 15 16 17 18 19 20 21 22 23 24 25 26 27 28 29 30 31 32 33 34 35 36 37 38 39 40 41 42 43 44 45 46 47 48 49 50
000
FTUS45 KSLC 120538
TAFSLC
TAF
KSLC 120538Z 1206/1312 34005KT 2SM BR OVC007
     FM121100 32005KT 1/2SM FZFG VV004
     FM121400 36004KT 2SM BR OVC008
     FM121900 32005KT 3SM BR OVC008=

USA.gov is the U.S. government's official web portal to all federal, state and local government web resources and services.